Other Public Products
Issued by NWS Grand Forks, ND

Home | Current Version | Previous Version | Graphics & Text | Print | Product List | Glossary On
Versions: 1 2 3 4 5 6 7 8 9 10 11 12 13 14 15 16 17 18 19 20 21 22 23 24 25 26 27 28 29 30 31 32 33 34 35 36 37 38 39 40 41 42 43 44 45 46 47 48 49 50
000
FPUS83 KFGF 311110
OPUFGF
PRAIRIE TO PINES WEATHER ROUNDUP
NATIONAL WEATHER SERVICE EASTERN NORTH DAKOTA/GRAND FORKS ND
500 AM CST SAT JAN 31 2015

 **SATELLITE DATA USED TO AUGMENT SKY COVER AT AUTOMATED STATIONS**
 *****  WEATHER ACROSS EASTERN NORTH DAKOTA  *****

CITY           SKY/WX    TMP DP  RH WIND       PRES   REMARKS
GRAND FORKS    PTCLDY     9  -1  64 N23       30.34R WCI -11
GRAND FORKS AF CLOUDY     8   0  70 NE21G28   30.33R WCI -12
GRAND CITY NWS   N/A      7 N/A N/A N31         N/A  WCI -17
BUXTON         NOT AVBL
DEVILS LAKE    MOCLDY     9   1  72 N16       30.29R WCI  -9
FARGO          CLOUDY    17  11  77 N23       30.29R WCI  -1
WAHPETON ARPT  CLOUDY    19  14  79 N15G24    30.25R WCI   5
$$

 *****  WEATHER ACROSS CENTRAL AND WESTERN NORTH DAKOTA  *****

CITY           SKY/WX    TMP DP  RH WIND       PRES   REMARKS
JAMESTOWN      CLOUDY    19  13  77 NE12      30.24R WCI   7
BISMARCK       CLOUDY    24  22  91 NE10      30.22F WCI  14
MINOT          CLOUDY    16  12  84 N12       30.27R WCI   3
MINOT AFB      FLURRIES  13  12  97 NE15      30.29R WCI  -3
GARRISON         N/A     19  16  88 NE7       30.22F WCI  10
WILLISTON      CLOUDY    23  20  88 E16       30.19F WCI  10
DICKINSON      FOG       22  19  89 E15       30.10F VSB 3/4 WCI   9
HETTINGER      FOG       24  22  91 E14       30.09F VSB 1/4 WCI  12
$$

 *****  OTHER OBSERVATIONS NORTHEAST NORTH DAKOTA  *****

CITY           SKY/WX    TMP DP  RH WIND       PRES   REMARKS
WALHALLA         N/A      5   1  85 N17       30.39R WCI -14
LANGDON        NOT AVBL
CAVALIER       CLOUDY     7   1  78 N16G23    30.37R WCI -11
GRAFTON        NOT AVBL
CANDO          CLOUDY     5  -2  72 NE17G24   30.32S WCI -14
FORT TOTTEN    NOT AVBL
ROLLA          CLOUDY     3   0  85 NE24      30.30S WCI -20
RUGBY          FAIR       7   0  72 NE15      30.32R WCI -11
 ***** THE ABOVE OBSERVATIONS ARE NON NWS ARE NOT QUALITY
        CONTROLLED AND MAY MIS-REPORT RAIN FOR SNOW...
$$

 *****  OTHER OBSERVATIONS SOUTHEAST NORTH DAKOTA *****

CITY           SKY/WX    TMP DP  RH WIND       PRES   REMARKS
COOPERSTOWN    NOT AVBL
VALLEY CITY    FLURRIES  16  14  93 NE16G25   30.25S WCI   0
OAKES            N/A     21  21 100 N14       30.23R WCI   8
GWINNER        CLOUDY    23  23 100 N15       30.24R WCI  10
BUFFALO        NOT AVBL
WYNDMERE         N/A     18  16  93 N13         N/A  WCI   4
 ***** THE ABOVE OBSERVATIONS ARE NON NWS ARE NOT QUALITY
       CONTROLLED AND MAY MIS-REPORT RAIN FOR SNOW...
$$

  *****  WEATHER ACROSS NORTHERN MINNESOTA  *****

CITY           SKY/WX    TMP DP  RH WIND       PRES   REMARKS
FLAG ISLAND    CLEAR      0  -6  78 NW20      30.26R WCI -22
WARROAD        CLEAR      3  -4  72 NW12      30.28R WCI -13
ROSEAU         PTCLDY     3  -2  78 N13       30.29S WCI -14
HALLOCK        PTCLDY     5  -4  66 N16       30.35R WCI -14
THF RVR FALLS  PTCLDY     7  -2  66 N18       30.28R WCI -12
HALSTAD          N/A     14   7  73 N23         N/A  WCI  -5
FOSSTON        CLOUDY    12   9  85 N17       30.24R WCI  -5
BAUDETTE       CLOUDY     4  -1  80 NW15      30.24R WCI -14
WASKISH        MOCLDY    12   9  85 NW10      30.22R WCI  -1
CROOKSTON      PTCLDY    10   7  85 N16       30.31R WCI  -7
$$
  *****  WEATHER ACROSS CENTRAL AND WEST MINNESOTA  *****

CITY           SKY/WX    TMP DP  RH WIND       PRES   REMARKS
BEMIDJI        CLOUDY    17  14  87 N15G21    30.19R WCI   3
PARK RAPIDS    CLOUDY    21  17  84 N12       30.16R WCI   9
WADENA         CLOUDY    21  19  93 N9        30.15S WCI  11
DETROIT LAKES  CLOUDY    19  19 100 N12G21    30.21R WCI   7
MOORHEAD       MIX PCPN  18  16  93 N20       30.28R WCI   1
FERGUS FALLS   CLOUDY    19  16  86 N17       30.24R WCI   4
ELBOW LAKE     CLOUDY    20  18  93 N16       30.18R WCI   6
MORRIS MN      CLOUDY    21  19  93 N14       30.18R FOG     WCI   8
STAPLES        CLOUDY    21  19  93 N9        30.15S WCI  11
WHEATON        CLOUDY    19  18  93 N15       30.24R WCI   5
$$
  *****  WEATHER ELSEWHERE ACROSS MINNESOTA  *****

CITY           SKY/WX    TMP DP  RH WIND       PRES   REMARKS
DULUTH         CLOUDY    21  13  71 NW8       30.09R WCI  11
INTRNTL FALLS  LGT SNOW  12   7  80 NW12      30.17R WCI  -2
ELY            FLURRIES  14  10  85 NW8       30.08R WCI   3
CLOQUET        CLOUDY    21  16  79 NW3       30.10S
BRAINERD       CLOUDY    24  19  81 N14       30.15R WCI  12
HIBBING        CLOUDY    20  13  74 N12       30.11R WCI   8
ALEXANDRIA     CLOUDY    22  19  89 N13       30.16R WCI  10
SAINT CLOUD    CLOUDY    24  21  88 NW9       30.14R WCI  14
MINNEAPOLIS    CLOUDY    23  18  81 CALM      30.13S
$$

  *****  WEATHER ACROSS SOUTH DAKOTA  *****

CITY           SKY/WX    TMP DP  RH WIND       PRES   REMARKS
SIOUX FALLS    MOCLDY    22  21  96 NE5       30.10R WCI  16
BROOKINGS      NOT AVBL
WATERTOWN      CLOUDY    24  22  91 NE15      30.12S FOG     WCI  11
HURON          CLOUDY    26  24  92 NE10      30.13F FOG     WCI  16
SISSETON         N/A     22  19  89 NE16      30.21R WCI   8
ABERDEEN       CLOUDY    25  22  88 N14       30.19R WCI  13
MITCHELL       MOCLDY    26  24  92 N8        30.11S WCI  18
PIERRE         FOG       25  24  96 NE10      30.10F VSB 3/4 WCI  15
MOBRIDGE       CLOUDY    25  23  92 NE13      30.14S FOG     WCI  14
RAPID CITY     MOCLDY    28  22  78 N8        30.01F WCI  20
$$

  *****  SOME WEATHER IN NEARBY STATES *****

CITY           SKY/WX    TMP DP  RH WIND       PRES   REMARKS
GLASGOW MT     CLOUDY    23  20  88 E20G29    30.08S FOG     WCI   8
GREAT FALLS MT CLOUDY    28  24  85 NW13G21   30.03R WCI  17
CHEYENNE WY    CLOUDY    32  23  69 N6        29.92F
SCOTTSBLUFF NE CLOUDY    32  27  81 W5        29.97F
OMAHA NE       CLOUDY    34  28  79 SE8       30.19S
DES MOINES IA  CLOUDY    32  24  72 SW9       30.20S WCI  24
DAVENPORT IA   PTCLDY    26  17  68 SW12      30.23F WCI  16
CHICAGO IL     MOCLDY    25  18  74 SW8       30.24F WCI  16
EAU CLAIRE WI  CLOUDY    22  13  68 CALM      30.12S
LA CROSSE WI   CLOUDY    24  15  68 S5        30.16F WCI  18
$$

  *****  SOME NATIONAL WEATHER *****

CITY           SKY/WX    TMP DP  RH WIND       PRES   REMARKS
LA GUARDIA NY  CLEAR     15   1  53 NW26G37   30.09R WCI  -4
RALEIGH NC     CLEAR     23   8  52 CALM      30.33R
ATLANTA GA     PTCLDY    30  19  63 N6        30.31S WCI  24
NEW ORLEANS LA PTCLDY    46  32  58 E8        30.28F
OKLAHOMA CITY  CLOUDY    45  28  51 SE12      30.19F
ALBUQUERQUE NM FLURRIES  33  32  96 N5        29.93F
SALT LAKE CITY CLOUDY    39  34  82 W5        29.96S
LOS ANGELES CA MOCLDY    56  55  97 CALM      29.84F
BOISE ID       CLEAR     27  24  89 CALM      30.12F
SEATTLE WA     FOG       39  38  96 NE3       30.26S VSB 1/8
$$

*** WEATHER ACROSS MANITOBA...SASKATCHEWAN AND ONTARIO ***
                ***ONTARIO***

CITY           SKY/WX    TMP DP  RH WIND       PRES   REMARKS
GERALDTON      LGT SNOW   7   1  78 NW9       29.99R WCI  -7
THUNDER BAY    FLURRIES  12   9  85 SW7       30.09S WCI   2
SIOUX LOOKOUT  LGT SNOW   1  -2  85 N14       30.16R WCI -17
TORONTO        MOCLDY     7   0  72 VRB2      30.31S
BIG TROUT LK   CLEAR    -26 -33  68 NW10G18   30.25R WCI -48
PICKLE LAKE    FLURRIES  -9 -17  70 NW8G18    30.14  WCI -26
DRYDEN         LGT SNOW   3   0  85 N7        30.16R WCI  -9
KENORA         FLURRIES   1  -2  85 NW12G17   30.23R WCI -15
$$
                *** MANITOBA***

CITY           SKY/WX    TMP DP  RH WIND       PRES   REMARKS
BRANDON        MOCLDY     0  -8  71 NE8       30.40R WCI -15
DAUPHIN        MOCLDY    -8 -15  71 N17       30.52R WCI -31
ISLAND LAKE    CLEAR    -24 -31  69 NW10      30.42R WCI -46
PILOT MOUND      N/A      1  -4  78 N12         N/A  WCI -15
THE PAS        CLEAR    -22 -29  69 NW10      30.61R WCI -44
THOMPSON       NOT AVBL
WINNIPEG       PTCLDY    -4 -13  65 N21G29    30.41R WCI -28
LYNN LAKE      CLEAR    -27 -35  68 NW7       30.52R WCI -46
CHURCHILL      BLWGSNOW -24 -31  69 NW26G35   30.31R VSB 1/2 WCI -57
GILLAM         CLEAR    -29 -36  68 W12G17    30.38R WCI -54
$$
                ***SASKATCHEWAN***

CITY           SKY/WX    TMP DP  RH WIND       PRES   REMARKS
ESTEVAN        LGT SNOW  10   7  85 E16       30.29R DRFTSNOWWCI  -7
KINDERSLEY       N/A      5   1  85 NE20G26   30.34R WCI -15
LLOYDMINSTER   CLEAR     -8 -13  77 NE13      30.47S WCI -28
PRINCE ALBERT  PTCLDY   -15 -20  76 NE5       30.58R WCI -27
REGINA         LGT SNOW   7   3  85 NE17      30.34S WCI -12
YORKTON        CLEAR     -2  -8  78 N10       30.42S WCI -19



USA.gov is the U.S. government's official web portal to all federal, state and local government web resources and services.